Location: ???? ????????
(44.1644°N, 135.0672°E)
Time: 00:09:08
(UTC+00:00)

Daily predictions for brighter satellites

Satellite Brightness Start Highest point End
(mag) Time Altitude Azimuth Time Altitude Azimuth Time Altitude Azimuth
MOS 1-B 4.4 11:11:37 10° SSE 11:17:21 70° ENE 11:23:06 10° N
NOSS 3-4 (A) 3.1 11:13:16 10° SSW 11:18:30 64° ESE 11:24:11 10° NE
NOSS 3-4 (C) 3.1 11:13:23 10° SSW 11:18:36 64° ESE 11:24:16 10° NE
Lacrosse 4 Rocket 3.2 11:16:50 10° N 11:20:01 20° NE 11:23:12 10° E
ERS-1 Rocket 3.2 11:17:23 10° SSE 11:22:16 57° ENE 11:27:11 10° N
Cosmos 1666 Rocket 4.3 11:19:19 10° N 11:23:30 39° ENE 11:27:39 10° SE
Cosmos 1980 3.9 11:20:30 10° NNW 11:26:08 63° ENE 11:31:43 10° SE
ATLAS CENTAUR R/B 2.6 11:24:29 10° NNW 11:27:48 27° NE 11:31:02 10° ESE
CZ-4B R/B 3.6 11:24:07 10° S 11:29:22 63° WSW 11:34:38 10° NNW
COSMOS 2455 3.3 11:23:35 10° NNW 11:29:29 52° NE 11:35:20 10° SE
Okean-O 2.7 11:27:21 10° SSE 11:31:41 63° ENE 11:36:01 10° N
Cosmos 1633 Rocket 3.7 11:28:58 10° N 11:33:01 39° ENE 11:37:04 10° SE
Cosmos 1727 Rocket 4.2 11:29:33 10° SSE 11:35:29 52° E 11:41:27 10° NNE
Cosmos 1758 4.5 11:32:54 10° NNE 11:36:01 24° ENE 11:38:54 11° SE
Cosmos 1300 2.3 11:33:05 10° NNW 11:36:13 73° W 11:39:19 10° S
ARIANE 6 FM1 Upper Stage 2.7 11:33:08 10° NW 11:37:17 89° NE 11:41:19 11° SE
USA 186 4.2 11:41:00 10° SW 11:42:55 17° W 11:44:52 10° NW
Cosmos 1328 Rocket 3.7 11:39:09 10° S 11:43:26 58° E 11:47:46 10° NNE
Cosmos 2100 Rocket 4.4 11:39:41 10° N 11:45:36 46° ENE 11:51:06 12° SSE
CZ-4 R/B 4.0 11:48:19 10° SW 11:50:23 14° W 11:52:27 10° WNW
In-Cosmos 22 4.2 11:47:25 10° S 11:53:09 80° E 11:58:49 10° NNE
Cosmos 1470 Rocket 4.1 11:50:07 10° N 11:54:16 42° ENE 11:57:38 15° SE
Helios 1A 2.9 11:50:35 10° NNE 11:54:33 81° WNW 11:58:28 10° SSW
